Weather reports worldwide

Advertisment
Portglenone, United Kingdom (3915): temperature & dewpoint: 20.09.2018 16:00:00 - 26.09.2018 16:00:00 (BST)Portglenone, United Kingdom (3915): temperature -20cm & temperature -100cm: 20.09.2018 16:00:00 - 26.09.2018 16:00:00 (BST)Portglenone, United Kingdom (3915): wind speed & gusts: 20.09.2018 16:00:00 - 26.09.2018 16:00:00 (BST)Portglenone, United Kingdom (3915): wind direction: 20.09.2018 16:00:00 - 26.09.2018 16:00:00 (BST)Portglenone, United Kingdom (3915): reduced air pressure: 20.09.2018 16:00:00 - 26.09.2018 16:00:00 (BST)Portglenone, United Kingdom (3915): visibility: 20.09.2018 16:00:00 - 26.09.2018 16:00:00 (BST)Portglenone, United Kingdom (3915): precipitation: 20.09.2018 16:00:00 - 26.09.2018 16:00:00 (BST)
Date & Time tt [°C] td [°C] tt -20cm [°C] tt -100cm [°C] ff [km/h] ff [kn] fx [km/h] fx [kn] dd ppp [hPa] vv [km] rr [mm]
26.09.2018 16:00:00 18,4 14,9 - - 9 5 - - WSW 1026,9 30 0,0
26.09.2018 15:00:00 18,6 14,7 - - 15 8 - - SW 1026,8 35 0,0
26.09.2018 14:00:00 18,4 15,0 - - 13 7 - - WSW 1026,7 30 0,0
26.09.2018 13:00:00 18,4 14,8 - - 18 10 48 26 WSW 1026,7 24 0,0
26.09.2018 12:00:00 17,6 14,8 - - 24 13 - - WSW 1026,4 27 0,0
26.09.2018 11:00:00 17,5 15,3 - - 16 9 - - WSW 1025,9 30 0,0
26.09.2018 10:00:00 16,7 15,5 16,0 13,5 9 5 - - S 1025,2 21 0,0
26.09.2018 09:00:00 15,9 15,3 - - 15 8 - - SSW 1024,6 16 0,2
26.09.2018 08:00:00 15,5 15,0 - - 13 7 - - SSW 1024,1 6 0,0
26.09.2018 07:00:00 14,6 14,0 - - 16 9 - - S 1023,5 13 0,0
26.09.2018 06:00:00 14,8 14,1 - - 16 9 - - S 1023,2 10 0,0
26.09.2018 05:00:00 14,3 13,7 - - 13 7 - - S 1023,2 20 0,0
26.09.2018 04:00:00 14,0 13,5 - - 18 10 - - S 1023,3 13 0,0
26.09.2018 03:00:00 13,4 12,9 - - 18 10 - - S 1023,2 17 0,0
26.09.2018 02:00:00 12,9 12,3 - - 21 11 - - S 1023,5 19 0,0
26.09.2018 01:00:00 12,8 11,9 - - 22 12 - - SSE 1024,1 11 0,0
26.09.2018 00:00:00 13,2 11,5 - - 21 11 - - S 1024,3 28 0,0
25.09.2018 23:00:00 13,2 11,2 - - 28 15 - - S 1024,5 29 0,0
25.09.2018 22:00:00 13,2 11,0 - - 24 13 - - S 1024,4 26 0,0
25.09.2018 21:00:00 13,2 10,5 - - 26 14 - - S 1024,7 30 0,0
25.09.2018 20:00:00 13,4 10,2 - - 24 13 - - S 1024,8 30 0,0
25.09.2018 19:00:00 13,3 10,2 - - 24 13 - - SSW 1025,0 27 0,0
25.09.2018 18:00:00 12,9 10,4 - - 21 11 48 26 S 1025,8 28 0,0
25.09.2018 17:00:00 12,5 10,0 - - 31 17 50 27 S 1025,9 19 0,0
25.09.2018 16:00:00 13,4 9,3 - - 24 13 46 25 S 1026,3 30 0,0
25.09.2018 15:00:00 12,7 9,3 - - 22 12 48 26 S 1026,8 45 0,0
25.09.2018 14:00:00 11,2 9,2 - - 26 14 46 25 S 1027,6 20 0,0
25.09.2018 13:00:00 11,0 7,9 - - 22 12 - - SSE 1028,4 30 0,0
25.09.2018 12:00:00 10,6 6,9 - - 28 15 - - S 1029,3 29 0,0
25.09.2018 11:00:00 9,7 6,6 - - 24 13 - - S 1030,0 35 0,0
25.09.2018 10:00:00 9,1 6,1 16,0 13,7 26 14 - - S 1030,3 27 0,0
25.09.2018 09:00:00 8,4 5,6 - - 24 13 - - S 1030,9 22 0,0
25.09.2018 08:00:00 8,2 5,5 - - 18 10 - - SSE 1031,2 30 0,0
25.09.2018 07:00:00 7,8 5,5 - - 13 7 - - SSE 1032,1 28 0,0
25.09.2018 06:00:00 7,5 5,1 - - 11 6 - - SSE 1033,0 27 0,0
25.09.2018 05:00:00 6,4 4,5 - - 13 7 - - SSE 1033,2 30 0,0
25.09.2018 04:00:00 5,9 4,5 - - 9 5 - - SSE 1034,0 23 0,0
25.09.2018 03:00:00 6,8 5,1 - - 13 7 - - SE 1034,5 23 0,0
25.09.2018 02:00:00 6,4 4,7 - - 13 7 - - SSE 1035,4 22 0,0
25.09.2018 01:00:00 7,2 5,3 - - 13 7 - - SE 1035,9 22 0,0
25.09.2018 00:00:00 8,0 5,6 - - 11 6 - - SE 1035,9 28 0,0
24.09.2018 23:00:00 8,1 5,5 - - 11 6 - - SE 1036,3 28 0,0
24.09.2018 22:00:00 8,3 5,8 - - 9 5 - - SE 1036,5 40 0,0
24.09.2018 21:00:00 8,6 5,6 - - 9 5 - - SE 1036,7 - 0,0
24.09.2018 20:00:00 10,0 5,9 - - 4 2 - - SSE 1036,6 - 0,0
24.09.2018 19:00:00 11,6 5,9 - - 4 2 - - SW 1036,4 - 0,0
24.09.2018 18:00:00 12,6 6,2 - - 9 5 - - WSW 1036,4 - 0,0
24.09.2018 17:00:00 15,0 7,1 - - 11 6 - - WSW 1036,5 - 0,0
24.09.2018 16:00:00 14,0 7,6 - - 11 6 - - WSW 1036,9 - 0,0
24.09.2018 15:00:00 13,3 6,8 - - 9 5 - - W 1037,4 - 0,0
24.09.2018 14:00:00 12,4 6,3 - - 15 8 - - WNW 1037,5 - 0,0
24.09.2018 13:00:00 13,3 7,2 - - 13 7 - - W 1037,6 30 0,0
24.09.2018 12:00:00 11,8 7,0 - - 15 8 - - W 1037,8 30 0,0
24.09.2018 11:00:00 11,6 7,8 - - 11 6 - - WSW 1037,7 25 0,0
24.09.2018 10:00:00 8,1 5,7 16,2 13,7 4 2 - - SSW 1037,5 26 0,0
24.09.2018 09:00:00 6,7 4,9 - - 4 2 - - SSW 1037,2 30 0,0
24.09.2018 08:00:00 4,5 3,8 - - 4 2 - - SSE 1036,8 30 0,2
24.09.2018 07:00:00 4,0 3,2 - - 4 2 - - S 1036,3 28 0,0
24.09.2018 06:00:00 4,4 3,8 - - 4 2 - - S 1036,1 30 0,0
24.09.2018 05:00:00 3,6 2,9 - - 4 2 - - ESE 1035,9 23 0,0
24.09.2018 04:00:00 3,9 3,0 - - 2 1 - - S 1035,8 25 0,0
24.09.2018 03:00:00 4,0 2,9 - - 8 4 - - SSE 1035,7 20 0,0
24.09.2018 02:00:00 4,6 3,4 - - 2 1 - - S 1035,3 20 0,0
24.09.2018 01:00:00 4,8 3,6 - - 4 2 - - ESE 1034,8 23 0,0
24.09.2018 00:00:00 4,8 3,2 - - 2 1 - - NNW 1034,2 18 0,0
23.09.2018 23:00:00 4,9 3,8 - - 2 1 - - NNW 1033,3 20 0,0
23.09.2018 22:00:00 5,4 3,6 - - 2 1 - - S 1032,3 18 0,0
23.09.2018 21:00:00 6,2 4,3 - - 2 1 - - NW 1031,8 23 0,0
23.09.2018 20:00:00 7,6 4,1 - - 5 3 - - NW 1030,8 25 0,0
23.09.2018 19:00:00 9,8 5,0 - - 16 9 - - NW 1029,6 20 0,0
23.09.2018 18:00:00 10,5 4,6 - - 22 12 46 25 WNW 1028,5 27 0,0
23.09.2018 17:00:00 11,5 5,2 - - 24 13 - - NW 1027,5 25 0,0
23.09.2018 16:00:00 9,9 5,8 - - 28 15 48 26 NW 1026,9 26 0,0
23.09.2018 15:00:00 11,6 6,5 - - 21 11 46 25 NW 1025,6 27 0,2
23.09.2018 14:00:00 12,3 7,2 - - 28 15 - - NW 1024,4 18 0,2
23.09.2018 13:00:00 10,0 6,8 - - 24 13 52 28 NW 1023,8 45 0,0
23.09.2018 12:00:00 9,6 4,9 - - 28 15 48 26 NW 1022,7 30 0,0
23.09.2018 11:00:00 7,9 4,9 - - 22 12 48 26 NW 1021,9 45 0,2
23.09.2018 10:00:00 9,1 5,6 16,7 13,7 15 8 - - NW 1020,9 18 0,0
23.09.2018 09:00:00 5,4 3,9 - - 4 2 - - NW 1020,1 35 0,0
23.09.2018 08:00:00 5,0 3,2 - - 4 2 - - WSW 1019,5 30 0,2
23.09.2018 07:00:00 3,8 2,5 - - 4 2 - - E 1018,9 27 0,0
23.09.2018 06:00:00 4,9 3,6 - - 9 5 - - NNW 1018,6 35 0,0
23.09.2018 05:00:00 3,7 3,0 - - 2 1 - - ESE 1018,3 30 0,0
23.09.2018 04:00:00 4,1 3,0 - - 4 2 - - E 1018,1 29 0,0
23.09.2018 03:00:00 4,6 3,2 - - 2 1 - - S 1018,2 30 0,0
23.09.2018 02:00:00 5,0 3,8 - - 5 3 - - N 1017,8 28 0,0
23.09.2018 01:00:00 4,5 3,5 - - 0 0 - - N 1017,7 25 0,0
23.09.2018 00:00:00 4,2 2,4 - - 5 3 - - SE 1017,6 27 0,0
22.09.2018 23:00:00 4,9 3,2 - - 5 3 - - N 1017,8 30 0,0
22.09.2018 22:00:00 5,2 3,4 - - 5 3 - - N 1017,3 29 0,0
22.09.2018 21:00:00 6,2 3,1 - - 4 2 - - N 1016,8 27 0,0
22.09.2018 20:00:00 8,3 4,1 - - 5 3 - - N 1016,1 30 0,0
22.09.2018 19:00:00 9,9 5,0 - - 9 5 - - NNW 1015,5 28 0,0
22.09.2018 18:00:00 10,6 4,8 - - 13 7 - - NNW 1015,2 27 0,0
22.09.2018 17:00:00 11,9 5,2 - - 9 5 - - NNW 1015,2 23 0,0
22.09.2018 16:00:00 12,4 5,3 - - 16 9 - - WNW 1015,1 25 0,0
22.09.2018 15:00:00 13,7 4,8 - - 4 2 - - W 1015,0 29 0,0
22.09.2018 14:00:00 11,5 4,9 - - 11 6 - - NW 1015,3 26 0,0
22.09.2018 13:00:00 11,2 5,5 - - 9 5 - - WSW 1015,4 25 0,0
22.09.2018 12:00:00 11,1 5,9 - - 9 5 - - W 1015,4 23 0,0
22.09.2018 11:00:00 9,7 6,9 - - 5 3 - - S 1015,4 23 0,0
22.09.2018 10:00:00 7,7 6,0 17,0 14,0 4 2 - - SSE 1015,2 20 0,0
22.09.2018 09:00:00 6,6 5,3 - - 4 2 - - SE 1015,5 22 0,0
22.09.2018 08:00:00 5,6 4,5 - - 5 3 - - SSE 1015,0 26 0,0
22.09.2018 07:00:00 5,3 4,2 - - 9 5 - - SSE 1014,9 23 0,0
22.09.2018 06:00:00 5,0 4,1 - - 8 4 - - SSE 1014,7 19 0,0
22.09.2018 05:00:00 5,2 4,1 - - 8 4 - - S 1014,7 21 0,0
22.09.2018 04:00:00 5,5 4,5 - - 8 4 - - SW 1014,4 20 0,0
22.09.2018 03:00:00 4,5 3,4 - - 5 3 - - SSW 1014,4 19 0,0
22.09.2018 02:00:00 4,1 2,9 - - 8 4 - - S 1014,5 17 0,0
22.09.2018 01:00:00 5,3 3,1 - - 8 4 - - SSW 1014,0 22 0,0
22.09.2018 00:00:00 6,4 4,1 - - 8 4 - - SW 1013,7 21 0,0
21.09.2018 23:00:00 7,4 5,1 - - 15 8 - - WSW 1013,1 18 0,0
21.09.2018 22:00:00 7,5 4,9 - - 11 6 - - WSW 1012,8 16 0,0
21.09.2018 21:00:00 7,4 5,4 - - 9 5 - - SSW 1012,2 18 0,0
21.09.2018 20:00:00 8,5 6,5 - - 9 5 - - SSW 1011,1 23 0,0
21.09.2018 19:00:00 10,1 7,6 - - 18 10 - - WNW 1010,1 8 0,0
21.09.2018 18:00:00 11,2 7,8 - - 9 5 46 25 W 1009,2 30 0,2
21.09.2018 17:00:00 11,2 8,9 - - 11 6 - - W 1008,4 35 0,6
21.09.2018 16:00:00 12,2 7,3 - - 21 11 48 26 WNW 1007,2 23 0,0
21.09.2018 15:00:00 12,8 6,3 - - 34 18 52 28 WNW 1005,9 28 0,0
21.09.2018 14:00:00 13,8 8,7 - - 31 17 65 35 WNW 1004,7 26 0,0
21.09.2018 13:00:00 11,8 7,8 - - 37 20 65 35 WNW 1002,6 23 0,0
21.09.2018 12:00:00 10,6 8,5 - - 29 16 46 25 WNW 1000,8 26 0,2
21.09.2018 11:00:00 10,0 7,7 - - 28 15 - - WNW 998,9 2,9 0,0
21.09.2018 10:00:00 7,6 7,0 17,5 14,0 13 7 - - SSW 997,3 28 0,0
21.09.2018 09:00:00 6,9 5,7 - - 18 10 - - S 996,9 9 0,0
21.09.2018 08:00:00 6,5 5,8 - - 15 8 - - SSW 996,9 21 0,2
21.09.2018 07:00:00 4,9 3,8 - - 9 5 - - S 997,1 22 0,0
21.09.2018 06:00:00 5,8 4,9 - - 9 5 - - SSW 997,4 23 0,0
21.09.2018 05:00:00 4,9 3,9 - - 5 3 - - SSE 997,3 29 0,0
21.09.2018 04:00:00 6,5 4,3 - - 11 6 - - W 997,3 35 0,0
21.09.2018 03:00:00 5,5 4,3 - - 4 2 - - SSE 997,1 35 0,0
21.09.2018 02:00:00 6,2 5,3 - - 9 5 - - WNW 996,9 30 0,0
21.09.2018 01:00:00 6,6 6,1 - - 2 1 - - NNE 996,5 18 0,0
21.09.2018 00:00:00 6,8 6,3 - - 2 1 - - WSW 996,5 17 0,2
20.09.2018 23:00:00 7,1 6,6 - - 4 2 - - SW 996,8 9 0,2
20.09.2018 22:00:00 7,3 6,6 - - 9 5 - - NNW 996,9 15 0,8
20.09.2018 21:00:00 7,6 6,5 - - 5 3 - - NNW 997,9 7 1,6
20.09.2018 20:00:00 8,9 7,5 - - 5 3 - - ENE 997,7 13 0,6
20.09.2018 19:00:00 9,5 7,8 - - 4 2 - - E 998,5 13 0,0
20.09.2018 18:00:00 10,4 7,8 - - 4 2 - - SE 999,4 15 0,0
20.09.2018 17:00:00 11,2 7,2 - - 4 2 - - SSW 999,8 22 0,0
20.09.2018 16:00:00 11,1 7,4 - - 9 5 - - S 1001,0 18 0,0

tt = temperature
td = dewpoint
tt -20cm = temperature -20cm
tt -100cm = temperature -100cm
ff = wind speed
fx = gusts
dd = wind direction
ppp = reduced air pressure
vv = visibility
rr = precipitation

Next stations